Location: Bukit Wong Jawa
(2.7833°N, 113.9667°E)
Time: 13:26:11
(UTC+00:00)

Daily predictions for brighter satellites

Satellite Brightness Start Highest point End
(mag) Time Altitude Azimuth Time Altitude Azimuth Time Altitude Azimuth
Helios 1A Rocket 4.1 12:05:40 10° S 12:09:34 43° WSW 12:13:28 10° NNW
Cosmos 158 Rocket 4.1 12:04:31 10° NNW 12:09:54 78° WSW 12:15:14 10° S
USA 276 4.1 12:09:33 10° WSW 12:12:06 24° WNW 12:12:06 24° WNW
ARIANE 5 DEB (SYLDA) 4.2 12:08:35 10° W 12:11:50 46° WNW 12:11:50 46° WNW
Delta 198 4.5 12:06:14 10° WSW 12:13:12 79° SSE 12:15:01 52° ENE
Meteor 2-15 4.3 12:07:12 10° N 12:13:19 78° E 12:19:26 10° S
NATO 3D Rocket 3.4 12:09:34 10° WSW 12:14:15 63° SSE 12:14:47 59° ESE
Fermi 4.2 12:12:33 10° WSW 12:16:03 54° WNW 12:16:03 54° WNW
Cosmos 923 Rocket 4.2 12:12:59 10° NNW 12:18:13 70° WSW 12:23:26 10° S
SL-08 RB Rocket 3.9 12:17:49 10° S 12:22:24 70° WSW 12:23:54 41° NNW
Cosmos 1680 Rocket 3.4 12:19:43 10° NNW 12:24:54 85° W 12:30:07 10° S
Meteor 2-16 Rocket 4.4 12:19:22 10° S 12:25:03 61° ESE 12:25:03 61° ESE
Intercosmos 25 Rocket 3.9 12:21:19 10° S 12:26:54 72° S 12:26:54 72° S
ARIANE 5 R/B 3.6 12:11:26 10° W 12:29:39 56° S 12:30:27 50° SSE
Lacrosse 5 rocket 3.4 12:28:37 10° S 12:30:32 23° S 12:30:32 23° S
Cosmos 1125 Rocket 4.5 12:29:18 10° SSW 12:34:11 43° WNW 12:35:43 34° NW
Cosmos 2369 Rocket 3.9 12:29:26 10° S 12:31:34 21° SSE 12:31:34 21° SSE
Cosmos 1943 Rocket 2.6 12:36:43 10° SSW 12:40:56 55° SSW 12:40:56 55° SSW
ARIANE 5 R/B 3.5 12:39:17 10° WSW 12:42:49 36° SSE 12:43:23 35° SSE
CZ-3A R/B 3.5 12:36:19 10° WSW 12:44:18 76° SSE 12:46:53 58° E
BREEZE-M DEB (TANK) 4.5 12:40:54 10° NW 12:51:31 46° NNW 12:51:31 46° NNW
ARIANE 5 R/B 4.3 19:18:46 75° ESE 19:18:46 75° ESE 20:54:46 10° E
ARIANE 5 R/B 4.3 19:18:47 75° ESE 19:18:47 75° ESE 20:54:46 10° E
Milstar 3 4.5 19:54:20 55° N 19:57:20 63° NNE 20:20:27 10° ESE
Cosmos 2237 Rocket 3.8 19:54:02 10° SSE 20:03:15 13° NE 20:03:56 10° NE
COSMOS 2455 3.4 20:15:30 54° ESE 20:15:30 54° ESE 20:20:35 10° SSE
Ariane H10 3.9 20:15:50 71° NW 20:16:53 76° N 20:32:35 10° E
Sakura Rocket 4.4 20:24:23 44° SE 20:24:23 44° SE 20:28:46 10° SE
ATLAS 3B CENTAUR R/B 4.2 20:26:59 32° N 20:30:25 40° NE 20:45:33 10° E
Cosmos 841 Rocket 3.7 20:33:51 10° S 20:38:57 64° ESE 20:44:00 10° NNE
ADEOS Rocket 3.5 20:34:38 10° S 20:42:17 62° WSW 20:43:33 55° WNW
Cosmos 1536 Rocket 4.5 20:48:05 40° S 20:48:05 40° S 20:50:56 10° S
ADEOS 3.5 20:44:33 29° NNE 20:47:15 83° ESE 20:52:29 10° S
Cosmos 2263 Rocket 4.1 20:50:52 15° SSW 20:50:52 15° SSW 20:52:11 10° SSW
SJ-12 4.5 20:53:22 10° NNE 20:57:24 57° E 21:01:26 10° S
Skynet4D Del rocket 4.4 20:57:36 40° NNW 20:59:46 57° NNE 21:06:59 10° ESE
Cosmos 1570 Rocket 3.9 20:54:48 10° SSW 21:00:01 88° ESE 21:05:14 10° NNE
Cosmos 1891 Rocket 4.5 20:55:25 10° S 21:01:48 87° E 21:08:00 10° N
Meteor 2-5 Rocket 3.8 20:59:19 16° N 21:04:04 79° E 21:09:56 10° S
NOSS 3-2 (A) 2.9 20:59:22 10° SSW 21:04:43 78° WNW 21:10:08 10° NNE
Cosmos 1464 Rocket 3.9 20:59:44 10° S 21:05:54 85° E 21:12:00 10° N
Cosmos 44 4.2 21:02:28 20° N 21:05:59 50° ENE 21:10:56 10° SE
Aureole 2 Rocket 3.3 21:07:21 36° SE 21:07:21 36° SE 21:09:13 10° SSE
Lacrosse 4 Rocket 1.1 21:06:22 10° SSW 21:10:24 76° WNW 21:14:32 10° NNE
Cosmos 1072 Rocket 4.3 21:05:20 10° S 21:11:27 75° W 21:17:36 10° N
Meteor 1-31 Rocket 3.2 21:13:13 44° SW 21:13:13 44° SW 21:16:12 10° SSW
ARIANE 5 R/B 1.2 21:12:41 78° ESE 21:12:41 78° ESE 21:14:35 10° E
Cosmos 1626 3.1 21:16:29 31° SW 21:16:29 31° SW 21:18:50 10° SSW
NOSS 3-2 (C) 3.6 21:10:06 10° SSW 21:15:23 61° ESE 21:20:42 10° NNE
CZ-4B R/B 4.1 21:15:06 48° WNW 21:15:31 50° WNW 21:19:36 10° SSW
CZ-4B R/B 3.2 21:12:49 10° NNE 21:16:35 63° ESE 21:20:34 10° S
Cosmos 1814 Rocket 3.9 21:14:21 10° SSW 21:19:28 62° WNW 21:24:32 10° N
USA 267 4.2 21:15:21 10° ESE 21:21:29 44° NE 21:27:36 10° NNW
Cosmos 2208 Rocket 4.0 21:16:36 10° SSW 21:21:59 67° WNW 21:27:22 10° N
Centaur D-1AR AC-39 4.0 21:21:19 10° SW 21:25:41 21° S 21:28:37 10° ESE
Cosmos 1844 3.8 21:20:38 10° NNW 21:26:24 78° ENE 21:32:07 10° SSE
Cosmos 1818 4.4 21:25:23 28° W 21:26:30 31° WSW 21:31:13 10° S
Ariane H10 3.4 21:22:58 18° WSW 21:26:56 50° S 21:29:21 10° ESE
Meteor 1-24 Rocket 3.7 21:23:28 10° N 21:29:10 75° W 21:35:05 10° S
Cosmos 1908 3.6 21:26:25 10° S 21:30:11 64° E 21:33:56 10° NNE
ERBS 3.4 21:27:52 10° SSW 21:31:05 45° ESE 21:34:15 10° NE
CZ-4C R/B 3.6 21:28:13 10° SSW 21:31:25 34° WSW 21:31:44 34° W
SL-16 R/B 2.2 21:25:53 10° SSW 21:31:32 84° ESE 21:37:11 10° NNE
Cosmos 1544 Rocket 3.5 21:28:59 10° SSW 21:33:14 57° W 21:37:28 10° N
SJ 16-02 1.5 21:30:07 10° N 21:34:27 73° ENE 21:38:49 10° SSE
CZ-3B Rocket 3.6 21:33:17 12° WSW 21:35:55 18° SSW 21:38:32 10° SSE
Meteor PRIRODA 3.5 21:32:49 10° N 21:36:25 67° W 21:40:02 10° SSW
CENTAUR R/B 1.9 21:33:05 10° SSW 21:38:10 68° WNW 21:43:40 10° NNE
Cosmos 1953 2.4 21:34:31 10° SSW 21:38:25 49° W 21:42:15 10° N
Cosmos 1844 Rocket 2.8 21:36:26 13° NNW 21:41:11 53° WSW 21:46:35 10° S
Cosmos 2237 Rocket 3.9 21:45:39 12° NW 21:45:39 12° NW 21:46:24 10° NNW
Cosmos 2034 Rocket 4.0 21:38:02 10° SSW 21:44:16 62° W 21:50:33 10° N
Centaur AC-116 4.1 21:44:02 11° SW 21:44:51 13° SSW 21:46:02 10° S
Envisat 3.3 21:41:17 10° NNE 21:46:19 73° ESE 21:51:23 10° S
H-2A R/B 2.4 21:42:28 10° S 21:46:37 45° WSW 21:50:51 10° NNW
ASTRO E2 2.6 21:45:10 19° NW 21:47:54 81° NNE 21:51:51 10° ESE
Delta 202 4.2 21:42:05 10° WSW 21:48:03 89° SSE 21:56:45 10° ENE
USA 238 DEB 4.1 21:51:09 10° SW 21:56:51 33° WNW 22:02:37 10° N
USA 238 4.1 21:51:15 10° SW 21:56:59 34° WNW 22:02:45 10° N
NOAA 6 4.4 21:53:26 10° NNE 21:58:35 70° ESE 22:03:44 10° S
Cosmos 1634 Rocket 4.4 21:52:56 10° S 21:59:03 67° E 22:05:08 10° NNE
SL-19 R/B 4.4 21:59:17 10° NNE 22:02:19 55° ESE 22:05:07 10° S
SL-24 R/B 3.8 22:01:03 10° S 22:04:36 51° W 22:08:15 10° NNW
ATLAS 2A CENTAUR R/B 3.7 22:00:59 11° WNW 22:06:11 73° SSW 22:31:48 10° ESE
SKYMED 2 3.6 22:02:17 10° SSE 22:06:38 85° E 22:10:58 10° N
GPS 2-15 Rocket1 3.9 22:04:10 10° WSW 22:08:57 55° SSE 22:13:47 10° E
Nadezhda 4 Rocket 4.3 22:06:19 10° N 22:12:25 75° E 22:18:34 10° S
Cosmos 836 Rocket 4.5 22:07:29 10° SSW 22:12:47 76° WNW 22:18:01 10° N
Cosmos 990 Rocket 4.0 22:07:51 10° NNW 22:12:58 88° WSW 22:18:08 10° SSE
Okean 1-7 Rocket 3.6 22:09:28 10° N 22:13:53 69° W 22:18:17 10° S
PAYLOAD B 4.5 22:08:26 10° NNE 22:14:01 82° ESE 22:19:39 10° S
